QPF
0.00 0.01 0.01 0.01 0.01 0.02 0.02 0.02 0.02 0.02 0.03 0.03 0.05 0.12 0.09 0.06 0.05 0.04 0.04 0.05 0.07 0.04 0.03 0.02 0.02 0.02 0.01 0.01 0.01 0.01 0.01 0.01 0.01 0.01 0.01 0.01 0.01 0.02 0.02 0.02 0.01 0.02 0.02 0.02
0.01 0.01 0.01 0.01 0.01 0.01 0.01 0.02 0.02 0.02 0.02 0.02 0.08 0.12 0.08 0.06 0.04 0.05 0.06 0.05 0.05 0.04 0.03 0.02 0.02 0.02 0.01 0.02 0.02 0.01 0.01 0.01 0.01 0.00 0.00 0.00 0.01 0.01 0.01 0.01 0.01 0.01 0.01 0.01
0.01 0.01 0.01 0.01 0.01 0.01 0.01 0.02 0.01 0.02 0.02 0.02 0.03 0.06 0.06 0.06 0.05 0.04 0.06 0.06 0.08 0.04 0.04 0.05 0.02 0.02 0.02 0.02 0.02 0.01 0.01 0.01 0.01 0.00 0.00 0.00 0.00 0.01 0.01 0.01 0.01 0.01 0.01 0.01
0.02 0.01 0.00 0.01 0.01 0.01 0.01 0.01 0.01 0.02 0.03 0.02 0.02 0.04 0.05 0.07 0.06 0.05 0.06 0.06 0.08 0.04 0.03 0.04 0.02 0.02 0.02 0.02 0.02 0.01 0.01 0.01 0.02 0.01 0.00 0.00 0.00 0.00 0.01 0.01 0.01 0.01 0.01 0.01
0.01 0.01 0.00 0.01 0.01 0.01 0.01 0.01 0.01 0.01 0.02 0.02 0.02 0.03 0.05 0.06 0.05 0.05 0.07 0.07 0.08 0.04 0.05 0.05 0.02 0.02 0.03 0.02 0.02 0.02 0.01 0.01 0.01 0.01 0.01 0.01 0.00 0.00 0.01 0.01 0.01 0.01 0.01 0.01
0.01 0.01 0.00 0.00 0.00 0.01 0.00 0.01 0.01 0.01 0.02 0.02 0.03 0.04 0.05 0.04 0.04 0.06 0.06 0.05 0.05 0.03 0.04 0.04 0.03 0.04 0.04 0.03 0.03 0.03 0.02 0.01 0.01 0.02 0.01 0.01 0.01 0.01 0.01 0.01 0.01 0.01 0.01 0.02
0.02 0.01 0.01 0.01 0.01 0.01 0.01 0.02 0.02 0.03 0.05 0.03 0.02 0.03 0.05 0.04 0.04 0.05 0.04 0.03 0.04 0.03 0.03 0.03 0.03 0.05 0.07 0.05 0.03 0.02 0.02 0.02 0.01 0.01 0.01 0.01 0.01 0.01 0.01 0.01 0.01 0.02 0.01 0.02
0.03 0.02 0.01 0.01 0.00 0.01 0.01 0.02 0.02 0.03 0.05 0.04 0.04 0.05 0.05 0.03 0.03 0.04 0.04 0.03 0.03 0.03 0.03 0.04 0.05 0.06 0.10 0.11 0.06 0.03 0.02 0.02 0.02 0.02 0.01 0.01 0.01 0.01 0.01 0.01 0.01 0.02 0.02 0.02
0.01 0.02 0.01 0.01 0.01 0.01 0.01 0.01 0.01 0.03 0.03 0.04 0.04 0.06 0.05 0.03 0.04 0.04 0.03 0.03 0.04 0.03 0.03 0.03 0.04 0.05 0.06 0.08 0.10 0.09 0.05 0.03 0.03 0.03 0.02 0.02 0.02 0.02 0.02 0.02 0.01 0.01 0.01 0.02
0.01 0.01 0.01 0.00 0.01 0.01 0.00 0.00 0.01 0.01 0.02 0.03 0.04 0.05 0.07 0.04 0.04 0.04 0.03 0.05 0.05 0.04 0.02 0.03 0.05 0.05 0.05 0.06 0.09 0.07 0.03 0.02 0.03 0.04 0.04 0.03 0.03 0.02 0.02 0.03 0.03 0.02 0.02 0.02
0.01 0.01 0.01 0.02 0.01 0.01 0.01 0.00 0.00 0.01 0.01 0.02 0.03 0.05 0.08 0.06 0.04 0.05 0.05 0.07 0.10 0.07 0.04 0.02 0.03 0.03 0.03 0.04 0.03 0.03 0.03 0.03 0.05 0.05 0.06 0.05 0.04 0.04 0.05 0.05 0.04 0.03 0.03 0.02
0.01 0.00 0.01 0.01 0.01 0.01 0.01 0.00 0.00 0.01 0.01 0.01 0.02 0.04 0.05 0.05 0.06 0.05 0.04 0.06 0.08 0.08 0.06 0.04 0.03 0.03 0.03 0.03 0.03 0.03 0.03 0.04 0.06 0.06 0.05 0.04 0.04 0.05 0.05 0.05 0.06 0.05 0.05 0.05
0.00 0.00 0.00 0.01 0.01 0.01 0.01 0.00 0.01 0.01 0.01 0.01 0.02 0.04 0.04 0.04 0.04 0.04 0.03 0.08 0.12 0.13 0.11 0.09 0.05 0.04 0.04 0.04 0.05 0.06 0.06 0.07 0.08 0.09 0.07 0.05 0.05 0.06 0.06 0.07 0.07 0.08 0.09 0.09
0.00 0.00 0.00 0.01 0.00 0.01 0.01 0.01 0.01 0.01 0.01 0.01 0.01 0.01 0.02 0.04 0.03 0.02 0.04 0.12 0.16 0.15 0.11 0.09 0.06 0.05 0.04 0.04 0.06 0.08 0.09 0.09 0.09 0.08 0.07 0.06 0.06 0.08 0.08 0.08 0.08 0.09 0.08 0.07
0.00 0.00 0.00 0.00 0.00 0.00 0.00 0.00 0.00 0.00 0.00 0.00 0.00 0.01 0.01 0.05 0.03 0.04 0.08 0.09 0.08 0.11 0.09 0.06 0.05 0.05 0.03 0.03 0.04 0.05 0.06 0.06 0.05 0.05 0.05 0.05 0.08 0.12 0.12 0.10 0.09 0.08 0.07 0.05
0.00 0.01 0.01 0.00 0.00 0.00 0.00 0.00 0.00 0.00 0.01 0.01 0.02 0.02 0.03 0.02 0.02 0.04 0.05 0.04 0.05 0.06 0.09 0.07 0.04 0.03 0.02 0.01 0.01 0.02 0.02 0.02 0.03 0.03 0.04 0.04 0.06 0.11 0.13 0.14 0.10 0.08 0.07 0.06
0.00 0.01 0.01 0.00 0.00 0.00 0.00 0.01 0.01 0.01 0.01 0.02 0.02 0.02 0.04 0.05 0.03 0.04 0.04 0.03 0.04 0.04 0.04 0.06 0.08 0.07 0.04 0.02 0.01 0.01 0.01 0.02 0.02 0.02 0.03 0.03 0.03 0.05 0.08 0.09 0.09 0.09 0.07 0.06
0.00 0.01 0.00 0.00 0.00 0.01 0.01 0.01 0.01 0.02 0.04 0.03 0.03 0.02 0.04 0.07 0.08 0.05 0.05 0.05 0.03 0.04 0.06 0.07 0.10 0.13 0.10 0.06 0.03 0.01 0.01 0.01 0.02 0.02 0.02 0.03 0.04 0.05 0.06 0.07 0.08 0.10 0.10 0.07
0.01 0.00 0.00 0.01 0.02 0.01 0.01 0.01 0.01 0.05 0.11 0.05 0.03 0.07 0.06 0.07 0.08 0.09 0.10 0.09 0.07 0.10 0.12 0.10 0.10 0.13 0.11 0.09 0.06 0.03 0.02 0.02 0.02 0.02 0.03 0.03 0.04 0.04 0.04 0.05 0.05 0.05 0.06 0.06
0.02 0.01 0.01 0.01 0.01 0.01 0.01 0.01 0.01 0.02 0.06 0.05 0.03 0.08 0.11 0.09 0.06 0.05 0.05 0.04 0.04 0.08 0.12 0.12 0.12 0.11 0.08 0.06 0.05 0.05 0.04 0.03 0.03 0.03 0.03 0.04 0.05 0.04 0.04 0.04 0.05 0.06 0.05 0.05
0.02 0.03 0.04 0.04 0.02 0.01 0.01 0.01 0.01 0.03 0.05 0.03 0.05 0.07 0.07 0.04 0.03 0.03 0.03 0.03 0.03 0.04 0.05 0.05 0.04 0.04 0.03 0.04 0.04 0.04 0.05 0.06 0.06 0.06 0.06 0.07 0.07 0.07 0.06 0.07 0.07 0.07 0.07 0.08
0.02 0.02 0.02 0.02 0.02 0.01 0.00 0.00 0.01 0.02 0.02 0.02 0.04 0.06 0.04 0.01 0.01 0.01 0.02 0.02 0.03 0.03 0.03 0.03 0.03 0.03 0.03 0.04 0.05 0.05 0.05 0.05 0.07 0.08 0.08 0.09 0.09 0.08 0.07 0.06 0.06 0.08 0.09 0.10
0.02 0.02 0.02 0.02 0.02 0.01 0.01 0.00 0.01 0.01 0.02 0.02 0.03 0.05 0.04 0.01 0.01 0.01 0.01 0.01 0.02 0.02 0.03 0.03 0.04 0.04 0.05 0.06 0.05 0.05 0.04 0.05 0.05 0.06 0.07 0.08 0.08 0.09 0.08 0.07 0.07 0.09 0.10 0.09
0.03 0.02 0.01 0.02 0.03 0.02 0.02 0.01 0.01 0.02 0.01 0.02 0.02 0.02 0.02 0.01 0.02 0.02 0.02 0.01 0.01 0.02 0.03 0.04 0.04 0.04 0.04 0.04 0.05 0.05 0.05 0.06 0.07 0.06 0.05 0.05 0.05 0.06 0.07 0.07 0.07 0.09 0.09 0.10
0.04 0.04 0.03 0.03 0.03 0.06 0.08 0.07 0.06 0.06 0.04 0.02 0.03 0.04 0.03 0.01 0.02 0.03 0.03 0.02 0.02 0.02 0.03 0.03 0.03 0.04 0.05 0.05 0.06 0.06 0.07 0.08 0.08 0.07 0.06 0.06 0.05 0.05 0.05 0.06 0.06 0.07 0.06 0.06
0.04 0.04 0.05 0.07 0.07 0.08 0.14 0.17 0.15 0.09 0.06 0.03 0.05 0.07 0.04 0.01 0.01 0.03 0.04 0.03 0.03 0.03 0.03 0.03 0.04 0.05 0.06 0.06 0.07 0.06 0.06 0.07 0.08 0.09 0.09 0.08 0.06 0.05 0.04 0.04 0.03 0.05 0.06 0.06
MSLP
1008.99 1009.79 1010.37 1010.75 1010.99 1011.17 1011.39 1011.69 1012.09 1012.57 1013.07 1013.51 1013.82 1013.97 1013.93 1013.74 1013.46 1013.16 1012.90 1012.73 1012.65 1012.66 1012.71 1012.76 1012.76 1012.70 1012.58 1012.45 1012.35 1012.33 1012.43 1012.67 1013.03 1013.47 1013.92 1014.33 1014.64 1014.81 1014.85 1014.77 1014.61 1014.44 1014.30 1014.22
1009.63 1010.16 1010.43 1010.51 1010.52 1010.55 1010.72 1011.07 1011.61 1012.28 1012.99 1013.62 1014.08 1014.33 1014.33 1014.13 1013.81 1013.46 1013.15 1012.95 1012.86 1012.86 1012.92 1012.96 1012.95 1012.86 1012.70 1012.52 1012.38 1012.34 1012.45 1012.74 1013.18 1013.72 1014.29 1014.80 1015.20 1015.43 1015.49 1015.40 1015.22 1015.01 1014.82 1014.69
1009.99 1010.23 1010.22 1010.06 1009.88 1009.84 1010.02 1010.48 1011.21 1012.10 1013.02 1013.84 1014.45 1014.77 1014.79 1014.56 1014.19 1013.77 1013.41 1013.17 1013.08 1013.10 1013.18 1013.24 1013.24 1013.14 1012.95 1012.72 1012.53 1012.45 1012.56 1012.86 1013.35 1013.96 1014.62 1015.23 1015.72 1016.02 1016.12 1016.06 1015.88 1015.64 1015.43 1015.28
1010.08 1010.07 1009.83 1009.51 1009.24 1009.20 1009.48 1010.12 1011.06 1012.17 1013.31 1014.29 1015.00 1015.35 1015.35 1015.06 1014.60 1014.10 1013.68 1013.40 1013.31 1013.36 1013.48 1013.59 1013.62 1013.52 1013.32 1013.06 1012.82 1012.69 1012.75 1013.03 1013.53 1014.18 1014.89 1015.58 1016.14 1016.52 1016.68 1016.66 1016.51 1016.29 1016.07 1015.91
1009.97 1009.78 1009.40 1009.00 1008.75 1008.81 1009.25 1010.10 1011.26 1012.60 1013.90 1015.00 1015.76 1016.09 1016.02 1015.62 1015.04 1014.44 1013.94 1013.63 1013.54 1013.63 1013.81 1013.99 1014.07 1014.01 1013.81 1013.52 1013.24 1013.04 1013.04 1013.27 1013.73 1014.37 1015.11 1015.84 1016.46 1016.90 1017.14 1017.18 1017.07 1016.88 1016.68 1016.53
1009.78 1009.48 1009.05 1008.67 1008.52 1008.73 1009.37 1010.44 1011.82 1013.33 1014.76 1015.91 1016.65 1016.92 1016.73 1016.20 1015.48 1014.77 1014.19 1013.85 1013.77 1013.90 1014.16 1014.41 1014.56 1014.55 1014.38 1014.08 1013.75 1013.49 1013.41 1013.56 1013.96 1014.56 1015.28 1016.01 1016.67 1017.17 1017.47 1017.58 1017.54 1017.40 1017.24 1017.10
1009.60 1009.25 1008.85 1008.56 1008.56 1008.97 1009.83 1011.09 1012.64 1014.26 1015.74 1016.88 1017.56 1017.71 1017.39 1016.72 1015.88 1015.06 1014.42 1014.06 1014.00 1014.18 1014.50 1014.84 1015.07 1015.12 1014.98 1014.69 1014.33 1014.02 1013.86 1013.92 1014.23 1014.76 1015.43 1016.15 1016.83 1017.36 1017.72 1017.89 1017.91 1017.83 1017.71 1017.60
1009.48 1009.15 1008.84 1008.70 1008.87 1009.46 1010.49 1011.89 1013.53 1015.18 1016.64 1017.72 1018.29 1018.33 1017.89 1017.10 1016.17 1015.29 1014.62 1014.26 1014.22 1014.45 1014.85 1015.26 1015.56 1015.68 1015.58 1015.31 1014.93 1014.58 1014.35 1014.33 1014.55 1015.00 1015.61 1016.30 1016.96 1017.52 1017.91 1018.14 1018.21 1018.18 1018.10 1018.02
1009.43 1009.19 1009.01 1009.02 1009.36 1010.08 1011.21 1012.67 1014.30 1015.90 1017.28 1018.25 1018.71 1018.64 1018.12 1017.27 1016.32 1015.43 1014.78 1014.45 1014.46 1014.74 1015.19 1015.66 1016.02 1016.19 1016.13 1015.88 1015.51 1015.13 1014.86 1014.77 1014.92 1015.29 1015.84 1016.48 1017.12 1017.68 1018.10 1018.36 1018.48 1018.48 1018.43 1018.37
1009.45 1009.34 1009.31 1009.46 1009.91 1010.71 1011.85 1013.26 1014.79 1016.26 1017.49 1018.33 1018.68 1018.56 1018.02 1017.20 1016.30 1015.49 1014.91 1014.64 1014.71 1015.03 1015.51 1016.01 1016.40 1016.60 1016.57 1016.35 1016.00 1015.62 1015.34 1015.22 1015.32 1015.64 1016.13 1016.72 1017.33 1017.88 1018.31 1018.59 1018.73 1018.77 1018.74 1018.69
1009.49 1009.54 1009.66 1009.94 1010.45 1011.24 1012.30 1013.56 1014.90 1016.16 1017.21 1017.91 1018.19 1018.06 1017.58 1016.88 1016.12 1015.45 1015.00 1014.83 1014.95 1015.31 1015.79 1016.28 1016.66 1016.86 1016.85 1016.66 1016.34 1016.00 1015.74 1015.63 1015.72 1016.00 1016.45 1017.01 1017.59 1018.12 1018.55 1018.84 1019.01 1019.07 1019.05 1019.01
1009.52 1009.76 1010.03 1010.40 1010.92 1011.62 1012.52 1013.55 1014.64 1015.65 1016.49 1017.06 1017.30 1017.21 1016.86 1016.35 1015.80 1015.33 1015.05 1015.00 1015.17 1015.53 1015.98 1016.42 1016.76 1016.93 1016.93 1016.77 1016.50 1016.22 1016.01 1015.94 1016.05 1016.34 1016.78 1017.31 1017.87 1018.39 1018.81 1019.12 1019.30 1019.38 1019.39 1019.36
1009.54 1009.98 1010.40 1010.82 1011.31 1011.88 1012.56 1013.31 1014.10 1014.84 1015.47 1015.91 1016.13 1016.13 1015.96 1015.67 1015.37 1015.13 1015.03 1015.09 1015.31 1015.65 1016.04 1016.40 1016.66 1016.79 1016.78 1016.64 1016.44 1016.25 1016.12 1016.12 1016.29 1016.60 1017.05 1017.58 1018.13 1018.64 1019.07 1019.40 1019.60 1019.72 1019.75 1019.75
1009.59 1010.22 1010.76 1011.23 1011.64 1012.06 1012.48 1012.94 1013.42 1013.88 1014.29 1014.62 1014.84 1014.95 1014.96 1014.91 1014.86 1014.85 1014.92 1015.08 1015.32 1015.61 1015.91 1016.17 1016.35 1016.42 1016.39 1016.29 1016.17 1016.07 1016.05 1016.15 1016.39 1016.76 1017.23 1017.77 1018.32 1018.84 1019.28 1019.64 1019.89 1020.04 1020.13 1020.17
1009.71 1010.51 1011.16 1011.64 1011.97 1012.21 1012.39 1012.56 1012.73 1012.92 1013.14 1013.36 1013.57 1013.77 1013.96 1014.12 1014.30 1014.48 1014.68 1014.91 1015.15 1015.38 1015.59 1015.74 1015.82 1015.84 1015.81 1015.76 1015.71 1015.72 1015.82 1016.02 1016.35 1016.78 1017.29 1017.85 1018.41 1018.95 1019.42 1019.81 1020.12 1020.35 1020.50 1020.61
1009.96 1010.89 1011.59 1012.06 1012.32 1012.39 1012.34 1012.24 1012.14 1012.09 1012.12 1012.24 1012.44 1012.70 1013.01 1013.35 1013.69 1014.02 1014.32 1014.59 1014.81 1014.97 1015.08 1015.14 1015.15 1015.13 1015.10 1015.10 1015.14 1015.26 1015.47 1015.78 1016.19 1016.67 1017.22 1017.80 1018.38 1018.94 1019.45 1019.90 1020.28 1020.59 1020.84 1021.02
1010.36 1011.33 1012.06 1012.49 1012.65 1012.58 1012.34 1012.01 1011.69 1011.44 1011.31 1011.32 1011.49 1011.78 1012.17 1012.61 1013.06 1013.48 1013.84 1014.12 1014.31 1014.42 1014.46 1014.44 1014.40 1014.37 1014.37 1014.42 1014.55 1014.77 1015.08 1015.47 1015.94 1016.48 1017.05 1017.64 1018.24 1018.81 1019.37 1019.88 1020.34 1020.74 1021.09 1021.37
1010.85 1011.80 1012.48 1012.86 1012.92 1012.72 1012.33 1011.84 1011.35 1010.94 1010.69 1010.61 1010.73 1011.01 1011.43 1011.92 1012.42 1012.88 1013.27 1013.55 1013.72 1013.80 1013.80 1013.75 1013.70 1013.68 1013.72 1013.83 1014.03 1014.33 1014.70 1015.16 1015.66 1016.21 1016.79 1017.39 1017.99 1018.59 1019.18 1019.75 1020.29 1020.80 1021.24 1021.62
1011.33 1012.18 1012.77 1013.05 1013.03 1012.73 1012.24 1011.65 1011.05 1010.54 1010.20 1010.05 1010.12 1010.38 1010.79 1011.28 1011.80 1012.28 1012.67 1012.96 1013.13 1013.20 1013.20 1013.17 1013.14 1013.15 1013.24 1013.40 1013.65 1013.99 1014.40 1014.87 1015.38 1015.92 1016.48 1017.06 1017.66 1018.28 1018.90 1019.53 1020.15 1020.74 1021.28 1021.74
1011.66 1012.34 1012.79 1012.97 1012.86 1012.51 1011.97 1011.33 1010.70 1010.15 1009.77 1009.58 1009.62 1009.85 1010.23 1010.71 1011.22 1011.70 1012.11 1012.41 1012.61 1012.71 1012.75 1012.76 1012.78 1012.84 1012.96 1013.16 1013.43 1013.78 1014.18 1014.62 1015.10 1015.60 1016.13 1016.69 1017.28 1017.90 1018.56 1019.24 1019.93 1020.59 1021.20 1021.74
1011.70 1012.18 1012.47 1012.53 1012.36 1011.98 1011.45 1010.84 1010.23 1009.71 1009.33 1009.15 1009.17 1009.38 1009.74 1010.21 1010.71 1011.19 1011.62 1011.96 1012.21 1012.37 1012.48 1012.55 1012.62 1012.73 1012.88 1013.08 1013.34 1013.65 1014.00 1014.39 1014.80 1015.25 1015.74 1016.27 1016.85 1017.50 1018.19 1018.92 1019.66 1020.38 1021.05 1021.63
1011.36 1011.62 1011.76 1011.72 1011.52 1011.16 1010.68 1010.15 1009.62 1009.18 1008.87 1008.72 1008.76 1008.97 1009.32 1009.78 1010.28 1010.77 1011.23 1011.62 1011.94 1012.18 1012.36 1012.51 1012.63 1012.77 1012.92 1013.11 1013.32 1013.56 1013.84 1014.14 1014.48 1014.87 1015.31 1015.82 1016.41 1017.08 1017.81 1018.58 1019.37 1020.14 1020.85 1021.47
1010.62 1010.69 1010.69 1010.59 1010.39 1010.09 1009.71 1009.31 1008.92 1008.60 1008.38 1008.31 1008.39 1008.62 1008.97 1009.42 1009.93 1010.44 1010.94 1011.39 1011.78 1012.10 1012.36 1012.56 1012.74 1012.88 1013.02 1013.16 1013.30 1013.45 1013.63 1013.84 1014.11 1014.44 1014.86 1015.37 1015.98 1016.68 1017.46 1018.28 1019.12 1019.93 1020.66 1021.30
1009.56 1009.48 1009.38 1009.26 1009.10 1008.89 1008.66 1008.41 1008.19 1008.02 1007.93 1007.94 1008.08 1008.33 1008.70 1009.15 1009.66 1010.19 1010.72 1011.22 1011.67 1012.07 1012.39 1012.65 1012.85 1013.00 1013.10 1013.17 1013.23 1013.29 1013.38 1013.51 1013.72 1014.01 1014.42 1014.95 1015.59 1016.34 1017.18 1018.06 1018.94 1019.77 1020.53 1021.16
1008.32 1008.14 1008.00 1007.90 1007.81 1007.73 1007.65 1007.58 1007.53 1007.51 1007.55 1007.66 1007.85 1008.13 1008.50 1008.94 1009.45 1009.99 1010.54 1011.08 1011.58 1012.02 1012.40 1012.69 1012.91 1013.04 1013.11 1013.13 1013.12 1013.10 1013.11 1013.18 1013.35 1013.64 1014.06 1014.62 1015.32 1016.13 1017.02 1017.94 1018.86 1019.71 1020.47 1021.10
1007.09 1006.86 1006.72 1006.66 1006.67 1006.72 1006.81 1006.91 1007.02 1007.15 1007.30 1007.49 1007.72 1008.02 1008.37 1008.80 1009.28 1009.81 1010.36 1010.92 1011.45 1011.93 1012.34 1012.67 1012.89 1013.02 1013.07 1013.05 1012.99 1012.92 1012.90 1012.95 1013.11 1013.40 1013.86 1014.46 1015.21 1016.07 1017.00 1017.96 1018.89 1019.75 1020.50 1021.12
Thickness
5831 5812 5801 5808 5815 5814 5812 5805 5803 5815 5831 5822 5812 5807 5812 5818 5817 5815 5812 5811 5810 5811 5816 5817 5818 5817 5815 5813 5810 5808 5806 5804 5803 5799 5796 5793 5790 5791 5791 5791 5791 5791 5790 5789
5808 5802 5820 5828 5827 5822 5815 5804 5805 5816 5830 5821 5807 5803 5811 5815 5815 5816 5813 5811 5810 5809 5810 5812 5813 5814 5813 5811 5810 5807 5805 5804 5802 5800 5797 5795 5792 5791 5790 5790 5790 5789 5789 5788
5800 5815 5832 5827 5820 5814 5812 5807 5808 5810 5819 5819 5805 5790 5798 5808 5815 5816 5815 5813 5814 5813 5810 5810 5810 5810 5810 5809 5808 5808 5805 5804 5802 5800 5797 5794 5790 5788 5787 5786 5786 5788 5788 5787
5810 5827 5828 5821 5817 5816 5802 5824 5824 5816 5800 5787 5797 5766 5785 5798 5802 5807 5810 5811 5811 5813 5811 5810 5810 5808 5808 5809 5810 5807 5805 5803 5801 5799 5795 5790 5785 5781 5782 5784 5784 5785 5785 5784
5807 5824 5821 5816 5823 5827 5819 5835 5827 5818 5799 5784 5787 5769 5775 5791 5789 5797 5805 5810 5812 5813 5811 5809 5810 5810 5809 5809 5807 5805 5803 5801 5799 5797 5794 5789 5785 5783 5783 5783 5781 5781 5782 5782
5818 5834 5831 5829 5839 5840 5837 5827 5814 5800 5783 5763 5777 5770 5768 5781 5789 5797 5804 5808 5810 5811 5811 5810 5809 5808 5806 5806 5805 5803 5799 5797 5797 5795 5792 5789 5785 5782 5780 5778 5777 5777 5778 5778
5803 5819 5834 5840 5825 5829 5824 5792 5765 5759 5749 5755 5778 5772 5773 5796 5805 5806 5803 5804 5809 5810 5808 5805 5803 5802 5802 5801 5800 5799 5797 5794 5794 5792 5790 5788 5785 5782 5778 5777 5776 5774 5774 5774
5780 5785 5819 5833 5825 5815 5814 5795 5761 5747 5743 5752 5770 5766 5782 5805 5810 5811 5808 5806 5806 5805 5804 5804 5802 5801 5800 5800 5798 5796 5793 5791 5791 5789 5788 5786 5784 5781 5778 5777 5775 5774 5772 5772
5779 5785 5824 5837 5841 5830 5811 5798 5795 5768 5759 5748 5755 5769 5787 5803 5801 5802 5801 5800 5800 5801 5801 5801 5801 5799 5798 5796 5796 5794 5791 5789 5789 5787 5785 5783 5781 5778 5776 5774 5773 5772 5771 5770
5799 5788 5810 5828 5835 5832 5823 5809 5782 5764 5745 5736 5749 5757 5763 5780 5787 5793 5794 5793 5795 5796 5796 5796 5795 5794 5794 5794 5793 5792 5790 5787 5786 5784 5781 5779 5777 5775 5774 5771 5769 5768 5767 5767
5804 5784 5793 5806 5806 5804 5809 5801 5783 5764 5758 5740 5734 5751 5790 5787 5789 5790 5792 5793 5793 5792 5792 5792 5791 5790 5789 5790 5789 5787 5785 5782 5780 5779 5776 5774 5773 5772 5770 5768 5766 5764 5763 5762
5800 5778 5770 5789 5813 5824 5814 5803 5783 5763 5756 5751 5740 5751 5799 5796 5794 5792 5790 5791 5790 5790 5790 5789 5788 5786 5784 5783 5783 5781 5779 5777 5776 5774 5772 5770 5768 5767 5765 5763 5762 5761 5759 5757
5798 5772 5754 5763 5780 5799 5801 5802 5792 5775 5759 5747 5739 5753 5790 5790 5788 5789 5788 5787 5786 5787 5786 5784 5783 5780 5778 5778 5777 5776 5775 5773 5772 5770 5767 5765 5763 5762 5761 5759 5758 5756 5754 5751
5804 5770 5758 5752 5762 5780 5786 5795 5795 5776 5754 5749 5753 5760 5773 5778 5780 5781 5783 5782 5782 5782 5781 5777 5775 5774 5773 5773 5771 5771 5769 5768 5766 5764 5761 5759 5758 5757 5756 5755 5753 5751 5749 5745
5792 5769 5773 5777 5787 5790 5788 5791 5792 5781 5771 5759 5761 5764 5769 5776 5780 5781 5781 5779 5777 5774 5773 5773 5770 5768 5768 5768 5766 5766 5764 5763 5761 5758 5755 5754 5754 5752 5751 5749 5747 5746 5743 5741
5778 5767 5769 5771 5785 5784 5780 5786 5787 5783 5779 5771 5767 5763 5776 5780 5780 5777 5776 5775 5771 5769 5769 5769 5768 5766 5765 5763 5762 5761 5759 5758 5756 5753 5751 5749 5748 5746 5744 5743 5742 5739 5737 5734
5765 5759 5750 5748 5767 5769 5755 5771 5777 5773 5774 5771 5760 5765 5773 5770 5770 5770 5771 5770 5768 5765 5764 5763 5763 5763 5761 5759 5759 5756 5755 5754 5751 5748 5746 5744 5742 5740 5738 5737 5735 5732 5730 5728
5759 5749 5737 5736 5746 5730 5751 5780 5780 5770 5767 5772 5770 5770 5771 5770 5769 5769 5770 5766 5763 5762 5760 5760 5758 5757 5757 5756 5754 5752 5750 5747 5744 5742 5740 5739 5737 5734 5732 5730 5727 5725 5723 5720
5763 5748 5730 5722 5720 5728 5754 5771 5772 5760 5750 5766 5765 5765 5766 5767 5763 5758 5764 5765 5762 5760 5758 5757 5755 5753 5751 5750 5749 5746 5742 5740 5738 5735 5734 5733 5731 5728 5725 5723 5720 5719 5717 5714
5754 5747 5729 5720 5718 5715 5740 5767 5777 5762 5736 5759 5761 5758 5758 5756 5738 5741 5755 5757 5756 5755 5753 5751 5750 5747 5744 5743 5741 5737 5734 5732 5731 5730 5728 5727 5725 5722 5719 5717 5715 5713 5710 5707
5729 5726 5720 5714 5712 5720 5748 5765 5767 5733 5733 5755 5757 5755 5753 5747 5745 5748 5750 5748 5748 5747 5745 5743 5742 5739 5737 5737 5734 5729 5726 5724 5725 5724 5723 5721 5719 5716 5713 5710 5708 5706 5703 5700
5715 5710 5708 5705 5702 5712 5749 5753 5742 5739 5751 5753 5753 5752 5749 5747 5747 5745 5744 5741 5740 5737 5736 5735 5732 5730 5729 5728 5725 5720 5718 5718 5718 5717 5715 5713 5712 5710 5708 5703 5700 5697 5694 5690
5713 5713 5710 5709 5711 5730 5743 5745 5749 5750 5747 5748 5746 5746 5745 5742 5738 5736 5734 5732 5731 5730 5727 5726 5723 5720 5719 5718 5716 5712 5712 5712 5711 5709 5707 5705 5704 5701 5699 5695 5691 5688 5685 5681
5712 5717 5710 5708 5717 5726 5733 5739 5743 5745 5743 5744 5743 5741 5739 5733 5730 5727 5725 5723 5721 5720 5717 5716 5713 5710 5708 5709 5707 5705 5704 5705 5703 5700 5697 5696 5694 5692 5689 5686 5683 5680 5677 5674
5703 5706 5701 5701 5709 5715 5723 5727 5731 5734 5737 5736 5736 5735 5732 5727 5722 5720 5716 5714 5712 5710 5708 5706 5703 5701 5699 5699 5697 5696 5696 5695 5693 5690 5688 5686 5685 5682 5679 5677 5675 5673 5672 5670
5696 5696 5693 5693 5704 5703 5707 5718 5723 5724 5723 5725 5725 5722 5721 5719 5714 5712 5708 5705 5702 5699 5698 5695 5693 5691 5690 5689 5687 5686 5686 5685 5682 5679 5677 5675 5674 5672 5670 5668 5667 5666 5665 5664